Weather in Pron'

Russia / Tula Oblast     54°02′11″N   38°32′08″E
temp.,
°C
wind,
m/s
gust,
m/s
humid.,
%
clouds,
%
prec.,
mm/h
press.,
hPa
HPBL,
m
23 april, fri
fri2300:00+7s4118736 0.0 1018221
03:00+7s411896 0.0 1018221
06:00+7s4118843 0.1 1018231
09:00+12s611665 0.2 1017597
12:00+15s8104242 0.0 10162402
15:00+14s61052100 0.0 10151471
18:00+14s7105884 0.1 10131083
21:00+8nnw249091 1.0 1013117
24 april, sat
sat2400:00+8nnw2293100 0.6 1010139
03:00+8s41092100 1.1 1008808
06:00+4nw5796100 2.0 1008507
09:00+4wnw5996100 5.1 1008601
12:00+5wnw5884100 0.8 1008774
15:00+8w686199 1.5 10071437
18:00+7wsw695880 0.7 10071403
21:00+3wsw48805 0.8 1008265
25 april, sun
sun2500:00+1w5997100 0.5 1008491
03:00+2w81482100 3.8 1010685
06:000w6138997 0.0 1012516
09:00+3wsw711785 0.0 1012897
12:00+6wsw8105996 0.7 10131900
15:00+8wsw8124792 0.9 10122370
18:00+6sw8117283 0.7 10111236
21:00+3w489285 1.0 1013439
26 april, mon
mon2600:00+2wsw510895 0.1 1014386
03:00+1sw49895 0.1 1014244
06:000sw38875 0.0 1014275
09:00+4sw57665 0.0 1014947
12:00+7wsw565172 0.4 10131738
15:00+8wsw554692 1.1 10121793
18:00+7sw345037 0.6 10111260
21:00+4ssw347156 0.7 101174
27 april, tue
tue2700:00+3wsw2378100 0.0 101061
03:00+2wsw2379100 0.1 100973
06:00+2w3690100 0.2 1008292
09:00+3wnw338698 0.6 1008599
12:00+2wnw4797100 3.4 1009360
15:00+6w5759100 4.7 10081337
18:00+6wsw576323 0.6 1008743
21:00+3wsw49825 0.7 1010205